Date,TemperatureHighF,TemperatureAvgF,TemperatureLowF,DewpointHighF,DewpointAvgF,DewpointLowF,HumidityHigh,HumidityAvg,HumidityLow,PressureMaxIn,PressureMinIn,WindSpeedMaxMPH,WindSpeedAvgMPH,GustSpeedMaxMPH,PrecipitationSumIn
2013-1-1,51,48,44,50,41,28,97,79,49,30.04,29.87,6,1,12,0.24
2013-1-2,55,48,43,50,43,37,100,84,59,30.11,29.84,4,0,8,0.17
2013-1-3,48,41,32,40,36,29,90,83,70,30.20,30.06,2,0,6,0.00
2013-1-4,60,41,29,37,28,21,90,63,32,30.26,30.13,7,1,13,0.00
2013-1-5,58,42,31,33,26,22,72,56,30,30.32,30.16,4,0,8,0.01
2013-1-6,62,46,40,40,36,32,85,69,49,30.16,29.98,4,0,9,0.00
2013-1-7,62,44,33,36,31,28,84,64,34,30.35,30.12,4,0,8,0.00
2013-1-8,62,47,32,44,37,28,89,72,47,30.38,30.28,4,0,8,0.00
2013-1-9,75,54,39,55,46,36,91,76,49,30.38,30.29,5,0,8,0.00
2013-1-10,72,56,48,50,44,35,94,69,31,30.45,30.33,4,0,8,0.00
2013-1-11,52,47,44,49,45,40,97,91,71,30.34,30.10,4,0,9,0.20
2013-1-12,71,58,48,65,56,47,100,94,80,30.12,30.04,4,0,8,0.01
2013-1-13,79,66,54,64,60,53,100,83,58,30.09,29.99,8,2,17,0.00
2013-1-14,66,64,62,64,61,58,100,92,85,30.09,30.01,6,1,11,0.26
2013-1-15,63,47,45,62,46,42,100,96,92,30.16,29.99,5,1,11,0.04
2013-1-16,54,47,42,52,46,41,100,98,95,30.01,29.90,3,0,6,0.22
2013-1-17,52,46,34,52,46,33,100,97,93,30.10,29.80,6,1,15,1.48
2013-1-18,52,39,31,38,31,25,97,76,40,30.45,30.08,3,0,8,0.25
2013-1-19,62,43,28,38,30,24,89,64,30,30.41,30.09,5,1,10,0.00
2013-1-20,72,51,39,41,33,28,71,53,27,30.09,29.94,7,2,12,0.00
2013-1-21,69,48,33,40,29,17,86,53,23,30.02,29.81,8,1,16,0.00
2013-1-22,51,39,30,18,5,-14,46,29,11,30.19,29.90,8,1,15,0.00
2013-1-23,52,35,23,20,12,-3,64,42,18,30.28,29.96,6,1,11,0.00
2013-1-24,50,36,26,27,14,-6,77,45,19,30.41,29.89,6,1,14,0.00
2013-1-25,32,25,23,24,16,4,88,67,39,30.43,30.03,4,0,8,0.00
2013-1-26,47,34,27,38,30,24,91,85,66,30.31,30.00,2,0,4,0.22
2013-1-27,50,37,27,32,27,22,89,69,46,30.50,30.30,5,1,10,0.00
2013-1-28,51,43,36,45,34,28,83,72,56,30.41,30.19,5,1,11,0.01
2013-3-5,48,46,45,45,44,43,95,91,87,29.79,29.56,4,1,9,0.11
2013-3-7,51,43,38,29,27,25,61,54,43,30.18,30.09,3,1,7,0.00
2013-3-8,46,44,42,26,25,25,53,49,45,30.22,30.20,1,0,3,0.00
2013-3-9,70,69,68,32,30,28,28,26,25,30.19,30.18,3,2,6,0.00
2013-3-12,72,60,51,53,39,32,55,47,40,29.90,29.74,5,1,14,0.96
2013-3-14,54,47,44,25,19,13,48,36,24,30.09,30.06,4,0,7,0.00
2013-3-28,55,49,46,24,23,20,42,38,30,30.22,30.12,3,1,6,0.00
2013-4-1,67,60,58,41,39,36,52,47,39,29.88,29.80,3,1,7,0.05
2013-4-6,70,69,68,31,31,28,27,27,27,30.12,30.10,3,2,7,0.00
2013-4-7,74,71,70,44,44,43,41,40,36,30.05,30.04,4,2,7,0.00
2013-4-9,88,88,88,54,54,54,34,34,34,30.01,30.01,4,3,7,0.00
2013-4-10,83,83,83,57,57,57,43,43,43,29.90,29.89,2,2,4,0.00
2013-4-24,74,74,74,56,56,56,55,55,55,29.95,29.94,3,3,7,0.00
2013-5-9,84,74,64,60,58,55,82,62,42,30.02,29.95,3,0,8,0.00
2013-5-16,82,76,73,62,60,59,67,60,49,29.95,29.88,2,0,4,0.00
2013-6-18,83,72,70,74,69,68,96,92,75,29.84,29.74,2,0,7,0.71
2013-7-26,75,74,73,70,70,69,88,87,85,30.01,30.00,0,0,2,0.00
2013-11-13,45,35,32,25,25,20,74,67,39,30.41,30.38,1,0,2,0.06